sat.trackr.live / text

‹ back to catalog

RASSVET-3 11

NORAD 68370 · 2026-061L

PAYLOAD ACTIVE UNKNOWN

§ Identity

Operator
Country
CIS
Launch date
2026-03-23
Launch site
PLMSC
Launch vehicle
Mass (kg)
RCS (m²)

External: N2YO · Heavens-Above · Gunter

§ Orbital elements

Epoch: 2026-05-25T04:28:45.687360Z

Period
90.69 min
Inclination
82.2961°
Eccentricity
0.0000896
Mean motion
15.87778546 rev/d
Perigee alt
307.9 km
Apogee alt
309.1 km
Semi-major
6,686.6 km
B*
2.8230e-4
RAAN
37.7995°
Arg perigee
256.9753°
Mean anomaly
103.1418°
Rev number
993

§ Raw data

RASSVET-3 111 68370U 26061L   26145.18663990  .00075853  00000+0  28230-3 0  99942 68370  82.2961  37.7995 0000896 256.9753 103.1418 15.87778546  9931

JSON: /api/v1/satellites/68370 · /tle

For live sub-satellite position, see the globe view (requires WebGL).

§ Visibility from observer

Set your observer location to see the next 7 days of passes ≥ 10°. The values pass through the URL so the page stays shareable.

No JS? Fill the form by hand. The geolocation button needs JavaScript.